Location: Newark
(43.6583°N, 1.6617°E)
Time: 16:01:28
(UTC+00:00)

Vanguard 1 Rocket - Pass Details

Date: 20 August 2019
Orbit: 652 x 4225 km, 34.3° (Epoch: 15 September)

Event Time Altitude Azimuth Distance (km) Brightness Sun altitude
Rises 02:46:48 0° 229° (SW) 2,966 - -21.8°
Reaches altitude 10° 02:49:12 10° 215° (SW) 2,138 - -21.4°
Exits shadow 02:52:26 25° 170° (S) 1,565 8.3 -21.0°
Maximum altitude 02:53:05 25° 158° (SSE) 1,585 8.4 -20.9°
Drops below altitude 10° 02:58:20 10° 105° (ESE) 2,959 10.4 -20.2°
Sets 03:02:21 0° 94° (E) 4,432 11.6 -19.7°
